This is the latest recevied weather packets stored in our database for station/object IK5UIK-3. If no packets are shown the sender has not sent any weather packets the latest 10 day(s).
| Time | Temp. | Humidity | Pressure | Rain* | Wind** | Luminosity | Snow |
|---|---|---|---|---|---|---|---|
| 1788365657 | 30° C | 56% | 1009 hPa | 0 mm | - | - | - |
| 1788365533 | 30° C | 56% | 1009 hPa | 0 mm | - | - | - |
| 1788365173 | 30.56° C | 55% | 1009 hPa | 0 mm | - | - | - |
| 1788365056 | 30.56° C | 54% | 1009.1 hPa | 0 mm | - | - | - |
| 1788364813 | 30.56° C | 53% | 1009 hPa | 0 mm | - | - | - |
| 1788364756 | 31.11° C | 53% | 1008.9 hPa | 0 mm | - | - | - |
| 1788364453 | 31.11° C | 52% | 1008.9 hPa | 0 mm | - | - | - |
| 1788364093 | 31.11° C | 51% | 1008.8 hPa | 0 mm | - | - | - |
| 1788363856 | 31.11° C | 50% | 1008.9 hPa | 0 mm | - | - | - |
| 1788363733 | 31.11° C | 50% | 1009 hPa | 0 mm | - | - | - |
| 1788363374 | 31.11° C | 49% | 1008.9 hPa | 0 mm | - | - | - |
| 1788363013 | 31.67° C | 50% | 1008.8 hPa | 0 mm | - | - | - |
| 1788362958 | 31.67° C | 50% | 1008.8 hPa | 0 mm | - | - | - |
| 1788362654 | 31.67° C | 52% | 1008.8 hPa | 0 mm | - | - | - |
| 1788362293 | 31.11° C | 55% | 1008.9 hPa | 0 mm | - | - | - |
| 1788362056 | 31.11° C | 55% | 1008.8 hPa | 0 mm | - | - | - |
| 1788361934 | 31.11° C | 55% | 1009 hPa | 0 mm | - | - | - |
| 1788361574 | 30.56° C | 53% | 1009 hPa | 0 mm | - | - | - |
| 1788361456 | 30.56° C | 52% | 1009 hPa | 0 mm | - | - | - |
| 1788361214 | 30.56° C | 51% | 1009 hPa | 0 mm | - | - | - |
| 1788361158 | 31.11° C | 51% | 1009 hPa | 0 mm | - | - | - |
| 1788360854 | 31.11° C | 49% | 1008.9 hPa | 0 mm | - | - | - |
| 1788360556 | 31.11° C | 49% | 1008.8 hPa | 0 mm | - | - | - |
| 1788360494 | 31.11° C | 49% | 1008.7 hPa | 0 mm | - | - | - |
| 1788360256 | 31.67° C | 48% | 1008.9 hPa | 0 mm | - | - | - |
* Rain latest hour (hover to see other rain measurements)
** Current wind speed in m/s (hover to see current wind gust speed)